Time,TemperatureF,DewpointF,PressureIn,WindDirection,WindDirectionDegrees,WindSpeedMPH,WindSpeedGustMPH,Humidity,HourlyPrecipIn,Conditions,Clouds,dailyrainin,SoftwareType,DateUTC
2013-04-09 00:00:00,64.2,44.7,28.73,ENE,68,2.5,2.5,49,0.00,,,0.00,VWS V14.01,2013-04-09 05:00:00,
2013-04-09 00:05:00,64.2,44.7,28.73,ENE,68,1.3,1.3,49,0.00,,,0.00,VWS V14.01,2013-04-09 05:05:00,
2013-04-09 00:10:00,64.2,45.2,28.73,ESE,112,2.2,2.2,50,0.00,,,0.00,VWS V14.01,2013-04-09 05:10:00,
2013-04-09 00:15:00,64.2,45.2,28.73,ENE,68,2.5,2.5,50,0.00,,,0.00,VWS V14.01,2013-04-09 05:15:00,
2013-04-09 00:20:00,64.2,44.7,28.73,East,90,2.5,2.5,49,0.00,,,0.00,VWS V14.01,2013-04-09 05:20:00,
2013-04-09 00:25:00,64.0,45.0,28.73,SSE,158,2.7,2.7,50,0.00,,,0.00,VWS V14.01,2013-04-09 05:25:00,
2013-04-09 00:30:00,64.0,45.0,28.73,ESE,112,2.2,2.2,50,0.00,,,0.00,VWS V14.01,2013-04-09 05:30:00,
2013-04-09 00:35:00,63.9,44.9,28.73,ESE,112,1.6,2.5,50,0.00,,,0.00,VWS V14.01,2013-04-09 05:35:00,
2013-04-09 00:40:00,63.9,44.9,28.73,SE,135,2.0,2.0,50,0.00,,,0.00,VWS V14.01,2013-04-09 05:40:00,
2013-04-09 00:45:00,63.7,44.7,28.73,ESE,112,1.3,1.3,50,0.00,,,0.00,VWS V14.01,2013-04-09 05:45:00,
2013-04-09 00:50:00,63.9,44.9,28.73,SE,135,2.0,2.0,50,0.00,,,0.00,VWS V14.01,2013-04-09 05:50:00,
2013-04-09 00:55:00,63.9,44.9,28.73,ESE,112,2.0,2.0,50,0.00,,,0.00,VWS V14.01,2013-04-09 05:55:00,
2013-04-09 01:00:00,63.7,44.7,28.73,ESE,112,0.0,0.0,50,0.00,,,0.00,VWS V14.01,2013-04-09 06:00:00,
2013-04-09 01:05:00,63.5,44.5,28.73,ESE,112,0.0,0.0,50,0.00,,,0.00,VWS V14.01,2013-04-09 06:05:00,
2013-04-09 01:10:00,63.3,44.9,28.73,ESE,112,2.2,2.2,51,0.00,,,0.00,VWS V14.01,2013-04-09 06:10:00,
2013-04-09 01:15:00,63.3,44.9,28.73,ESE,112,0.0,0.0,51,0.00,,,0.00,VWS V14.01,2013-04-09 06:15:00,
2013-04-09 01:20:00,63.1,44.7,28.73,ESE,112,0.0,0.0,51,0.00,,,0.00,VWS V14.01,2013-04-09 06:20:00,
2013-04-09 01:25:00,63.5,45.6,28.73,ESE,112,2.0,3.1,52,0.00,,,0.00,VWS V14.01,2013-04-09 06:25:00,
2013-04-09 01:30:00,63.5,45.1,28.73,ESE,112,2.2,2.2,51,0.00,,,0.00,VWS V14.01,2013-04-09 06:30:00,
2013-04-09 01:35:00,63.7,45.8,28.73,ESE,112,2.5,2.7,52,0.00,,,0.00,VWS V14.01,2013-04-09 06:35:00,
2013-04-09 01:40:00,63.7,45.8,28.73,ESE,112,2.7,2.7,52,0.00,,,0.00,VWS V14.01,2013-04-09 06:40:00,
2013-04-09 01:45:00,63.5,45.6,28.73,ESE,112,1.6,2.5,52,0.00,,,0.00,VWS V14.01,2013-04-09 06:45:00,
2013-04-09 01:50:00,63.5,45.6,28.73,ESE,112,2.9,2.9,52,0.00,,,0.00,VWS V14.01,2013-04-09 06:50:00,
2013-04-09 01:55:00,63.5,45.6,28.73,ESE,112,2.7,3.1,52,0.00,,,0.00,VWS V14.01,2013-04-09 06:55:00,
2013-04-09 02:00:00,63.5,46.1,28.73,ESE,112,2.5,2.9,53,0.00,,,0.00,VWS V14.01,2013-04-09 07:00:00,
2013-04-09 02:05:00,63.5,46.1,28.73,SE,135,2.7,2.7,53,0.00,,,0.00,VWS V14.01,2013-04-09 07:05:00,
2013-04-09 02:10:00,63.5,46.1,28.73,ESE,112,3.1,3.6,53,0.00,,,0.00,VWS V14.01,2013-04-09 07:10:00,
2013-04-09 02:15:00,63.7,46.7,28.70,ESE,112,2.0,2.0,54,0.00,,,0.00,VWS V14.01,2013-04-09 07:15:00,
2013-04-09 02:20:00,63.5,46.1,28.70,ESE,112,3.8,5.8,53,0.00,,,0.00,VWS V14.01,2013-04-09 07:20:00,
2013-04-09 02:25:00,63.7,46.7,28.70,ESE,112,4.3,4.3,54,0.00,,,0.00,VWS V14.01,2013-04-09 07:25:00,
2013-04-09 02:30:00,63.7,46.7,28.70,ESE,112,2.9,3.6,54,0.00,,,0.00,VWS V14.01,2013-04-09 07:30:00,
2013-04-09 02:35:00,63.7,46.7,28.70,ENE,68,3.1,3.1,54,0.00,,,0.00,VWS V14.01,2013-04-09 07:35:00,
2013-04-09 02:40:00,63.7,46.7,28.70,ESE,112,2.5,3.1,54,0.00,,,0.00,VWS V14.01,2013-04-09 07:40:00,
2013-04-09 02:45:00,63.9,46.4,28.70,ENE,68,2.7,3.1,53,0.00,,,0.00,VWS V14.01,2013-04-09 07:45:00,
2013-04-09 02:50:00,64.2,46.8,28.70,ESE,112,4.0,4.0,53,0.00,,,0.00,VWS V14.01,2013-04-09 07:50:00,
2013-04-09 02:55:00,64.2,46.2,28.70,ESE,112,3.8,3.8,52,0.00,,,0.00,VWS V14.01,2013-04-09 07:55:00,
2013-04-09 03:00:00,64.2,46.8,28.70,SSE,158,5.4,5.4,53,0.00,,,0.00,VWS V14.01,2013-04-09 08:00:00,
2013-04-09 03:05:00,64.4,46.4,28.70,ESE,112,4.0,4.0,52,0.00,,,0.00,VWS V14.01,2013-04-09 08:05:00,
2013-04-09 03:10:00,64.6,46.6,28.70,ESE,112,4.0,4.0,52,0.00,,,0.00,VWS V14.01,2013-04-09 08:10:00,
2013-04-09 03:15:00,64.6,46.6,28.70,SE,135,3.8,4.9,52,0.00,,,0.00,VWS V14.01,2013-04-09 08:15:00,
2013-04-09 03:20:00,64.6,46.6,28.70,ESE,112,5.8,5.8,52,0.00,,,0.00,VWS V14.01,2013-04-09 08:20:00,
2013-04-09 03:25:00,64.6,46.1,28.70,SE,135,4.9,5.6,51,0.00,,,0.00,VWS V14.01,2013-04-09 08:25:00,
2013-04-09 03:30:00,64.6,46.6,28.70,SSE,158,2.7,3.6,52,0.00,,,0.00,VWS V14.01,2013-04-09 08:30:00,
2013-04-09 03:35:00,64.6,46.6,28.70,SSE,158,7.8,7.8,52,0.00,,,0.00,VWS V14.01,2013-04-09 08:35:00,
2013-04-09 03:40:00,64.8,46.7,28.70,South,180,5.8,5.8,52,0.00,,,0.00,VWS V14.01,2013-04-09 08:40:00,
2013-04-09 03:45:00,64.6,46.1,28.70,SE,135,2.7,3.8,51,0.00,,,0.00,VWS V14.01,2013-04-09 08:45:00,
2013-04-09 03:50:00,64.8,46.2,28.70,ESE,112,3.4,3.6,51,0.00,,,0.00,VWS V14.01,2013-04-09 08:50:00,
2013-04-09 03:55:00,64.8,46.2,28.70,SSE,158,6.0,6.0,51,0.00,,,0.00,VWS V14.01,2013-04-09 08:55:00,
2013-04-09 04:00:00,64.8,46.2,28.70,SE,135,4.0,4.0,51,0.00,,,0.00,VWS V14.01,2013-04-09 09:00:00,
2013-04-09 04:05:00,64.9,46.4,28.70,ESE,112,4.5,4.5,51,0.00,,,0.00,VWS V14.01,2013-04-09 09:05:00,
2013-04-09 04:10:00,64.9,46.4,28.70,South,180,5.8,5.8,51,0.00,,,0.00,VWS V14.01,2013-04-09 09:10:00,
2013-04-09 04:15:00,65.1,46.6,28.70,ESE,112,3.4,3.4,51,0.00,,,0.00,VWS V14.01,2013-04-09 09:15:00,
2013-04-09 04:20:00,65.1,46.6,28.70,SE,135,3.8,3.8,51,0.00,,,0.00,VWS V14.01,2013-04-09 09:20:00,
2013-04-09 04:25:00,65.1,46.0,28.70,ESE,112,2.0,3.8,50,0.00,,,0.00,VWS V14.01,2013-04-09 09:25:00,
2013-04-09 04:30:00,65.1,46.6,28.70,SSE,158,3.4,3.4,51,0.00,,,0.00,VWS V14.01,2013-04-09 09:30:00,
2013-04-09 04:35:00,65.3,46.2,28.70,ESE,112,2.7,4.9,50,0.00,,,0.00,VWS V14.01,2013-04-09 09:35:00,
2013-04-09 04:40:00,65.3,46.2,28.70,SE,135,4.9,4.9,50,0.00,,,0.00,VWS V14.01,2013-04-09 09:40:00,
2013-04-09 04:45:00,65.3,46.2,28.70,SSE,158,3.6,6.3,50,0.00,,,0.00,VWS V14.01,2013-04-09 09:45:00,
2013-04-09 04:50:00,65.1,46.0,28.70,SE,135,3.4,3.4,50,0.00,,,0.00,VWS V14.01,2013-04-09 09:50:00,
2013-04-09 04:55:00,65.3,46.2,28.70,ENE,68,3.8,4.3,50,0.00,,,0.00,VWS V14.01,2013-04-09 09:55:00,
2013-04-09 05:00:00,65.3,46.2,28.70,ESE,112,4.9,6.3,50,0.00,,,0.00,VWS V14.01,2013-04-09 10:00:00,
2013-04-09 05:05:00,65.1,46.0,28.70,ESE,112,4.3,5.8,50,0.00,,,0.00,VWS V14.01,2013-04-09 10:05:00,
2013-04-09 05:10:00,65.1,46.0,28.70,SE,135,10.1,10.1,50,0.00,,,0.00,VWS V14.01,2013-04-09 10:10:00,
2013-04-09 05:15:00,65.1,46.6,28.70,ESE,112,3.6,4.3,51,0.00,,,0.00,VWS V14.01,2013-04-09 10:15:00,
2013-04-09 05:20:00,65.1,46.0,28.70,ESE,112,3.4,3.4,50,0.00,,,0.00,VWS V14.01,2013-04-09 10:20:00,
2013-04-09 05:26:00,65.1,46.6,28.70,ESE,112,3.1,3.1,51,0.00,,,0.00,VWS V14.01,2013-04-09 10:26:00,
2013-04-09 05:31:00,64.9,46.4,28.70,SE,135,3.4,3.4,51,0.00,,,0.00,VWS V14.01,2013-04-09 10:31:00,
2013-04-09 05:36:00,64.9,46.4,28.70,ESE,112,4.9,4.9,51,0.00,,,0.00,VWS V14.01,2013-04-09 10:36:00,
2013-04-09 05:41:00,64.8,46.2,28.70,ESE,112,4.9,4.9,51,0.00,,,0.00,VWS V14.01,2013-04-09 10:41:00,
2013-04-09 05:46:00,64.8,46.2,28.70,ESE,112,4.3,4.7,51,0.00,,,0.00,VWS V14.01,2013-04-09 10:46:00,
2013-04-09 05:51:00,64.8,46.2,28.70,ESE,112,2.7,2.7,51,0.00,,,0.00,VWS V14.01,2013-04-09 10:51:00,
2013-04-09 05:56:00,64.6,46.1,28.70,SSE,158,2.7,3.6,51,0.00,,,0.00,VWS V14.01,2013-04-09 10:56:00,
2013-04-09 06:01:00,64.6,46.1,28.70,ESE,112,5.8,5.8,51,0.00,,,0.00,VWS V14.01,2013-04-09 11:01:00,
2013-04-09 06:06:00,64.4,46.4,28.70,ESE,112,4.3,4.3,52,0.00,,,0.00,VWS V14.01,2013-04-09 11:06:00,
2013-04-09 06:11:00,64.2,46.8,28.70,East,90,3.8,5.8,53,0.00,,,0.00,VWS V14.01,2013-04-09 11:11:00,
2013-04-09 06:16:00,64.2,46.8,28.73,SE,135,4.0,4.3,53,0.00,,,0.00,VWS V14.01,2013-04-09 11:16:00,
2013-04-09 06:21:00,64.2,46.8,28.73,SSE,158,5.8,5.8,53,0.00,,,0.00,VWS V14.01,2013-04-09 11:21:00,
2013-04-09 06:26:00,64.2,46.8,28.73,ESE,112,3.1,3.1,53,0.00,,,0.00,VWS V14.01,2013-04-09 11:26:00,
2013-04-09 06:31:00,64.0,46.6,28.73,SSE,158,5.4,6.3,53,0.00,,,0.00,VWS V14.01,2013-04-09 11:31:00,
2013-04-09 06:36:00,64.0,47.1,28.73,SE,135,5.6,7.4,54,0.00,,,0.00,VWS V14.01,2013-04-09 11:36:00,
2013-04-09 06:41:00,63.9,46.9,28.73,ENE,68,6.3,6.3,54,0.00,,,0.00,VWS V14.01,2013-04-09 11:41:00,
2013-04-09 06:46:00,63.9,46.9,28.73,NE,45,7.6,7.6,54,0.00,,,0.00,VWS V14.01,2013-04-09 11:46:00,
2013-04-09 06:51:00,63.9,46.9,28.73,SE,135,3.1,3.6,54,0.00,,,0.00,VWS V14.01,2013-04-09 11:51:00,
2013-04-09 06:56:00,63.7,47.2,28.73,ESE,112,6.0,6.0,55,0.00,,,0.00,VWS V14.01,2013-04-09 11:56:00,
2013-04-09 07:01:00,63.9,47.4,28.73,SSE,158,4.3,4.3,55,0.00,,,0.00,VWS V14.01,2013-04-09 12:01:00,
2013-04-09 07:05:00,63.9,47.4,28.73,ESE,112,3.8,3.8,55,0.00,,,0.00,VWS V14.01,2013-04-09 12:05:00,
2013-04-09 07:10:00,63.9,47.4,28.73,SE,135,6.5,6.5,55,0.00,,,0.00,VWS V14.01,2013-04-09 12:10:00,
2013-04-09 07:15:00,63.9,47.4,28.73,ESE,112,4.3,5.6,55,0.00,,,0.00,VWS V14.01,2013-04-09 12:15:00,
2013-04-09 07:20:00,63.9,46.9,28.73,South,180,3.8,4.5,54,0.00,,,0.00,VWS V14.01,2013-04-09 12:20:00,
2013-04-09 07:25:00,63.9,46.9,28.73,ESE,112,3.4,3.4,54,0.00,,,0.00,VWS V14.01,2013-04-09 12:25:00,
2013-04-09 07:30:00,64.0,47.6,28.73,ESE,112,3.1,5.8,55,0.00,,,0.00,VWS V14.01,2013-04-09 12:30:00,
2013-04-09 07:35:00,64.2,47.7,28.73,SE,135,5.4,5.4,55,0.00,,,0.00,VWS V14.01,2013-04-09 12:35:00,
2013-04-09 07:40:00,64.2,47.7,28.73,SSE,158,7.2,7.2,55,0.00,,,0.00,VWS V14.01,2013-04-09 12:40:00,
2013-04-09 07:46:00,64.2,47.7,28.76,East,90,3.6,3.6,55,0.00,,,0.00,VWS V14.01,2013-04-09 12:46:00,
2013-04-09 07:51:00,64.2,47.2,28.76,SSE,158,4.7,4.7,54,0.00,,,0.00,VWS V14.01,2013-04-09 12:51:00,
2013-04-09 07:56:00,64.4,47.4,28.76,SE,135,4.0,4.0,54,0.00,,,0.00,VWS V14.01,2013-04-09 12:56:00,
2013-04-09 08:01:00,64.8,47.2,28.76,SE,135,3.8,6.0,53,0.00,,,0.00,VWS V14.01,2013-04-09 13:01:00,
2013-04-09 08:06:00,65.1,47.6,28.76,ENE,68,4.9,5.8,53,0.00,,,0.00,VWS V14.01,2013-04-09 13:06:00,
2013-04-09 08:11:00,65.5,47.4,28.76,SSE,158,7.8,7.8,52,0.00,,,0.00,VWS V14.01,2013-04-09 13:11:00,
2013-04-09 08:16:00,66.7,46.5,28.76,ESE,112,2.9,6.3,48,0.00,,,0.00,VWS V14.01,2013-04-09 13:16:00,
2013-04-09 08:21:00,65.7,47.1,28.76,ESE,112,6.5,6.5,51,0.00,,,0.00,VWS V14.01,2013-04-09 13:21:00,
2013-04-09 08:26:00,65.5,46.9,28.76,SSE,158,4.0,4.3,51,0.00,,,0.00,VWS V14.01,2013-04-09 13:26:00,
2013-04-09 08:31:00,65.3,47.2,28.76,East,90,7.2,7.2,52,0.00,,,0.00,VWS V14.01,2013-04-09 13:31:00,
2013-04-09 08:36:00,65.1,47.1,28.76,ESE,112,2.5,2.9,52,0.00,,,0.00,VWS V14.01,2013-04-09 13:36:00,
2013-04-09 08:41:00,65.1,47.1,28.76,ENE,68,4.3,4.3,52,0.00,,,0.00,VWS V14.01,2013-04-09 13:41:00,
2013-04-09 08:46:00,65.3,46.7,28.76,East,90,2.0,3.4,51,0.00,,,0.00,VWS V14.01,2013-04-09 13:46:00,
2013-04-09 08:51:00,65.5,47.4,28.76,SE,135,5.6,5.6,52,0.00,,,0.00,VWS V14.01,2013-04-09 13:51:00,
2013-04-09 08:56:00,65.7,47.1,28.76,East,90,3.6,3.6,51,0.00,,,0.00,VWS V14.01,2013-04-09 13:56:00,
2013-04-09 09:00:00,66.0,47.4,28.76,ESE,112,4.0,4.0,51,0.00,,,0.00,VWS V14.01,2013-04-09 14:00:00,
2013-04-09 09:05:00,66.0,47.4,28.76,SE,135,5.6,5.6,51,0.00,,,0.00,VWS V14.01,2013-04-09 14:05:00,
2013-04-09 09:11:00,66.4,47.2,28.76,SSE,158,4.3,4.3,50,0.00,,,0.00,VWS V14.01,2013-04-09 14:11:00,
2013-04-09 09:16:00,66.2,47.0,28.76,ESE,112,3.6,3.6,50,0.00,,,0.00,VWS V14.01,2013-04-09 14:16:00,
2013-04-09 09:21:00,66.4,47.2,28.76,ESE,112,4.3,4.3,50,0.00,,,0.00,VWS V14.01,2013-04-09 14:21:00,
2013-04-09 09:26:00,66.2,47.0,28.76,ESE,112,4.3,4.3,50,0.00,,,0.00,VWS V14.01,2013-04-09 14:26:00,
2013-04-09 09:31:00,66.2,47.0,28.76,SE,135,4.5,5.6,50,0.00,,,0.00,VWS V14.01,2013-04-09 14:31:00,
2013-04-09 09:36:00,66.2,47.0,28.76,South,180,6.3,6.3,50,0.00,,,0.00,VWS V14.01,2013-04-09 14:36:00,
2013-04-09 09:40:00,66.2,47.0,28.76,ESE,112,3.4,3.4,50,0.00,,,0.00,VWS V14.01,2013-04-09 14:40:00,
2013-04-09 09:45:00,66.4,47.2,28.76,South,180,4.9,4.9,50,0.00,,,0.00,VWS V14.01,2013-04-09 14:45:00,
2013-04-09 09:51:00,66.4,47.2,28.76,ESE,112,8.5,8.5,50,0.00,,,0.00,VWS V14.01,2013-04-09 14:51:00,
2013-04-09 09:56:00,66.6,46.8,28.76,SSE,158,5.4,5.4,49,0.00,,,0.00,VWS V14.01,2013-04-09 14:56:00,
2013-04-09 10:01:00,66.6,46.8,28.79,East,90,2.9,4.3,49,0.00,,,0.00,VWS V14.01,2013-04-09 15:01:00,
2013-04-09 10:05:00,66.6,46.8,28.79,SSE,158,2.7,4.0,49,0.00,,,0.00,VWS V14.01,2013-04-09 15:05:00,
2013-04-09 10:10:00,66.6,46.8,28.79,SE,135,4.9,4.9,49,0.00,,,0.00,VWS V14.01,2013-04-09 15:10:00,
2013-04-09 10:15:00,66.7,47.0,28.79,East,90,5.8,5.8,49,0.00,,,0.00,VWS V14.01,2013-04-09 15:15:00,
2013-04-09 10:21:00,66.7,47.0,28.79,SE,135,6.5,7.8,49,0.00,,,0.00,VWS V14.01,2013-04-09 15:21:00,
2013-04-09 10:26:00,66.7,47.5,28.79,ESE,112,5.4,5.4,50,0.00,,,0.00,VWS V14.01,2013-04-09 15:26:00,
2013-04-09 10:31:00,66.7,47.5,28.79,ESE,112,3.6,3.6,50,0.00,,,0.00,VWS V14.01,2013-04-09 15:31:00,
2013-04-09 10:36:00,66.6,47.9,28.79,ESE,112,4.3,5.4,51,0.00,,,0.00,VWS V14.01,2013-04-09 15:36:00,
2013-04-09 10:41:00,66.4,48.8,28.79,South,180,5.8,5.8,53,0.00,,,0.00,VWS V14.01,2013-04-09 15:41:00,
2013-04-09 10:46:00,66.2,49.1,28.79,SE,135,6.3,6.3,54,0.00,,,0.00,VWS V14.01,2013-04-09 15:46:00,
2013-04-09 10:51:00,66.4,49.2,28.79,SE,135,7.8,7.8,54,0.00,,,0.00,VWS V14.01,2013-04-09 15:51:00,
2013-04-09 10:56:00,66.6,48.9,28.79,SSE,158,4.5,4.5,53,0.00,,,0.00,VWS V14.01,2013-04-09 15:56:00,
2013-04-09 11:01:00,66.7,49.6,28.79,ESE,112,3.8,4.3,54,0.00,,,0.00,VWS V14.01,2013-04-09 16:01:00,
2013-04-09 11:06:00,66.7,49.6,28.79,SSE,158,3.6,3.6,54,0.00,,,0.00,VWS V14.01,2013-04-09 16:06:00,
2013-04-09 11:11:00,66.6,49.9,28.79,ESE,112,4.9,5.6,55,0.00,,,0.00,VWS V14.01,2013-04-09 16:11:00,
2013-04-09 11:16:00,66.6,50.4,28.79,SSW,202,3.4,8.7,56,0.00,,,0.00,VWS V14.01,2013-04-09 16:16:00,
2013-04-09 11:21:00,66.7,50.1,28.79,SE,135,7.2,7.8,55,0.00,,,0.00,VWS V14.01,2013-04-09 16:21:00,
2013-04-09 11:26:00,67.1,50.4,28.79,ESE,112,6.5,9.4,55,0.00,,,0.00,VWS V14.01,2013-04-09 16:26:00,
2013-04-09 11:31:00,67.3,50.6,28.79,South,180,4.7,7.6,55,0.00,,,0.00,VWS V14.01,2013-04-09 16:31:00,
2013-04-09 11:36:00,67.6,50.4,28.79,ENE,68,5.8,5.8,54,0.00,,,0.00,VWS V14.01,2013-04-09 16:36:00,
2013-04-09 11:41:00,68.0,50.2,28.79,ESE,112,8.7,8.7,53,0.00,,,0.00,VWS V14.01,2013-04-09 16:41:00,
2013-04-09 11:46:00,67.8,50.6,28.79,SE,135,5.4,5.4,54,0.00,,,0.00,VWS V14.01,2013-04-09 16:46:00,
2013-04-09 11:51:00,67.8,50.6,28.79,East,90,3.1,3.1,54,0.00,,,0.00,VWS V14.01,2013-04-09 16:51:00,
2013-04-09 11:56:00,68.0,50.2,28.79,SE,135,4.0,4.0,53,0.00,,,0.00,VWS V14.01,2013-04-09 16:56:00,
2013-04-09 12:01:00,68.0,50.2,28.79,ESE,112,4.9,4.9,53,0.00,,,0.00,VWS V14.01,2013-04-09 17:01:00,
2013-04-09 12:06:00,68.2,50.4,28.79,SE,135,5.8,5.8,53,0.00,,,0.00,VWS V14.01,2013-04-09 17:06:00,
2013-04-09 12:11:00,68.4,50.1,28.79,ESE,112,5.4,5.4,52,0.00,,,0.00,VWS V14.01,2013-04-09 17:11:00,
2013-04-09 12:16:00,68.5,50.2,28.79,SSE,158,3.6,4.0,52,0.00,,,0.00,VWS V14.01,2013-04-09 17:16:00,
2013-04-09 12:21:00,68.7,49.9,28.79,East,90,3.6,4.3,51,0.00,,,0.00,VWS V14.01,2013-04-09 17:21:00,
2013-04-09 12:26:00,68.9,50.0,28.79,ESE,112,3.6,3.6,51,0.00,,,0.00,VWS V14.01,2013-04-09 17:26:00,
2013-04-09 12:31:00,68.9,49.5,28.79,SE,135,4.0,4.0,50,0.00,,,0.00,VWS V14.01,2013-04-09 17:31:00,
2013-04-09 12:35:00,68.7,49.3,28.79,SE,135,4.3,4.3,50,0.00,,,0.00,VWS V14.01,2013-04-09 17:35:00,
2013-04-09 12:40:00,68.9,49.5,28.79,SE,135,5.6,5.6,50,0.00,,,0.00,VWS V14.01,2013-04-09 17:40:00,
2013-04-09 12:45:00,69.3,49.8,28.79,South,180,3.4,5.8,50,0.00,,,0.00,VWS V14.01,2013-04-09 17:45:00,
2013-04-09 12:50:00,69.4,50.0,28.79,SE,135,3.1,3.1,50,0.00,,,0.00,VWS V14.01,2013-04-09 17:50:00,
2013-04-09 12:55:00,69.8,49.8,28.79,ESE,112,6.5,6.5,49,0.00,,,0.00,VWS V14.01,2013-04-09 17:55:00,
2013-04-09 13:00:00,70.2,49.6,28.79,ESE,112,3.1,4.0,48,0.00,,,0.00,VWS V14.01,2013-04-09 18:00:00,
2013-04-09 13:05:00,72.0,50.1,28.79,SE,135,5.6,5.6,46,0.00,,,0.00,VWS V14.01,2013-04-09 18:05:00,
2013-04-09 13:10:00,73.6,51.0,28.79,East,90,2.9,2.9,45,0.00,,,0.00,VWS V14.01,2013-04-09 18:10:00,
2013-04-09 13:15:00,73.4,49.6,28.76,SSE,158,4.9,8.7,43,0.00,,,0.00,VWS V14.01,2013-04-09 18:15:00,
2013-04-09 13:20:00,73.9,50.1,28.76,ESE,112,3.4,3.8,43,0.00,,,0.00,VWS V14.01,2013-04-09 18:20:00,
2013-04-09 13:26:00,74.1,49.6,28.76,SSE,158,12.3,12.3,42,0.00,,,0.00,VWS V14.01,2013-04-09 18:26:00,
2013-04-09 13:31:00,74.7,50.1,28.73,ESE,112,4.9,4.9,42,0.00,,,0.00,VWS V14.01,2013-04-09 18:31:00,
2013-04-09 13:36:00,74.1,48.9,28.73,ESE,112,5.8,5.8,41,0.00,,,0.00,VWS V14.01,2013-04-09 18:36:00,
2013-04-09 13:41:00,74.1,48.9,28.73,ESE,112,1.1,4.7,41,0.00,,,0.00,VWS V14.01,2013-04-09 18:41:00,
2013-04-09 13:46:00,75.0,49.8,28.73,ESE,112,5.8,5.8,41,0.00,,,0.00,VWS V14.01,2013-04-09 18:46:00,
2013-04-09 13:51:00,75.6,48.9,28.73,SSE,158,7.8,7.8,39,0.00,,,0.00,VWS V14.01,2013-04-09 18:51:00,
2013-04-09 13:56:00,75.7,49.0,28.73,SSE,158,4.0,4.0,39,0.00,,,0.00,VWS V14.01,2013-04-09 18:56:00,
2013-04-09 14:01:00,75.6,48.9,28.73,SE,135,5.6,5.6,39,0.00,,,0.00,VWS V14.01,2013-04-09 19:01:00,
2013-04-09 14:06:00,75.0,48.4,28.73,SSW,202,3.4,3.4,39,0.00,,,0.00,VWS V14.01,2013-04-09 19:06:00,
2013-04-09 14:11:00,74.3,48.4,28.73,East,90,4.3,4.3,40,0.00,,,0.00,VWS V14.01,2013-04-09 19:11:00,
2013-04-09 14:16:00,74.1,48.3,28.73,SE,135,3.6,3.8,40,0.00,,,0.00,VWS V14.01,2013-04-09 19:16:00,
2013-04-09 14:21:00,73.2,48.1,28.73,East,90,1.3,1.3,41,0.00,,,0.00,VWS V14.01,2013-04-09 19:21:00,
2013-04-09 14:26:00,73.0,48.0,28.73,South,180,1.6,3.8,41,0.00,,,0.00,VWS V14.01,2013-04-09 19:26:00,
2013-04-09 14:31:00,73.2,48.1,28.73,East,90,2.7,2.7,41,0.00,,,0.00,VWS V14.01,2013-04-09 19:31:00,
2013-04-09 14:36:00,73.6,48.5,28.73,ESE,112,1.6,1.6,41,0.00,,,0.00,VWS V14.01,2013-04-09 19:36:00,
2013-04-09 14:41:00,73.6,48.5,28.73,ENE,68,3.6,3.6,41,0.00,,,0.00,VWS V14.01,2013-04-09 19:41:00,
2013-04-09 14:46:00,73.8,48.6,28.73,SSE,158,1.3,1.6,41,0.00,,,0.00,VWS V14.01,2013-04-09 19:46:00,
2013-04-09 14:51:00,74.5,48.6,28.73,ESE,112,3.1,4.3,40,0.00,,,0.00,VWS V14.01,2013-04-09 19:51:00,
2013-04-09 14:57:00,75.4,49.4,28.73,SE,135,3.1,3.8,40,0.00,,,0.00,VWS V14.01,2013-04-09 19:57:00,
2013-04-09 15:01:00,75.4,48.7,28.73,South,180,2.7,4.3,39,0.00,,,0.00,VWS V14.01,2013-04-09 20:01:00,
2013-04-09 15:07:00,75.9,49.2,28.73,ESE,112,3.1,3.1,39,0.00,,,0.00,VWS V14.01,2013-04-09 20:07:00,
2013-04-09 15:12:00,76.1,48.7,28.73,NNE,22,1.1,2.9,38,0.00,,,0.00,VWS V14.01,2013-04-09 20:12:00,
2013-04-09 15:17:00,75.6,48.2,28.73,ESE,112,2.9,2.9,38,0.00,,,0.00,VWS V14.01,2013-04-09 20:17:00,
2013-04-09 15:22:00,74.7,48.1,28.73,East,90,1.6,1.6,39,0.00,,,0.00,VWS V14.01,2013-04-09 20:22:00,
2013-04-09 15:27:00,74.7,48.1,28.73,ESE,112,4.9,4.9,39,0.00,,,0.00,VWS V14.01,2013-04-09 20:27:00,
2013-04-09 15:32:00,74.1,47.6,28.73,ESE,112,2.7,3.1,39,0.00,,,0.00,VWS V14.01,2013-04-09 20:32:00,
2013-04-09 15:37:00,74.5,47.9,28.73,South,180,2.9,2.9,39,0.00,,,0.00,VWS V14.01,2013-04-09 20:37:00,
2013-04-09 15:42:00,75.2,47.9,28.73,ESE,112,6.5,6.5,38,0.00,,,0.00,VWS V14.01,2013-04-09 20:42:00,
2013-04-09 15:47:00,76.1,48.7,28.73,SE,135,1.3,1.3,38,0.00,,,0.00,VWS V14.01,2013-04-09 20:47:00,
2013-04-09 15:52:00,77.2,48.2,28.73,SSE,158,4.0,4.0,36,0.00,,,0.00,VWS V14.01,2013-04-09 20:52:00,
2013-04-09 15:57:00,77.2,48.2,28.70,SE,135,3.1,3.1,36,0.00,,,0.00,VWS V14.01,2013-04-09 20:57:00,
2013-04-09 16:02:00,79.5,50.2,28.70,SSE,158,2.0,2.0,36,0.00,,,0.00,VWS V14.01,2013-04-09 21:02:00,
2013-04-09 16:07:00,79.0,48.2,28.70,East,90,4.3,4.3,34,0.00,,,0.00,VWS V14.01,2013-04-09 21:07:00,
2013-04-09 16:12:00,77.4,46.8,28.67,SSE,158,3.1,3.1,34,0.00,,,0.00,VWS V14.01,2013-04-09 21:12:00,
2013-04-09 16:17:00,77.9,48.1,28.67,East,90,2.5,2.7,35,0.00,,,0.00,VWS V14.01,2013-04-09 21:17:00,
2013-04-09 16:22:00,79.5,48.7,28.67,SSW,202,4.0,4.0,34,0.00,,,0.00,VWS V14.01,2013-04-09 21:22:00,
2013-04-09 16:27:00,81.5,49.7,28.64,ESE,112,1.3,1.3,33,0.00,,,0.00,VWS V14.01,2013-04-09 21:27:00,
2013-04-09 16:32:00,82.9,49.2,28.64,East,90,2.9,2.9,31,0.00,,,0.00,VWS V14.01,2013-04-09 21:32:00,
2013-04-09 16:37:00,83.1,49.4,28.64,ESE,112,2.5,3.6,31,0.00,,,0.00,VWS V14.01,2013-04-09 21:37:00,
2013-04-09 16:42:00,81.7,48.1,28.61,SE,135,4.7,4.7,31,0.00,,,0.00,VWS V14.01,2013-04-09 21:42:00,
2013-04-09 16:47:00,79.9,47.4,28.61,ESE,112,5.6,5.6,32,0.00,,,0.00,VWS V14.01,2013-04-09 21:47:00,
2013-04-09 16:52:00,81.0,47.5,28.61,SSE,158,4.9,4.9,31,0.00,,,0.00,VWS V14.01,2013-04-09 21:52:00,
2013-04-09 16:57:00,82.4,48.8,28.61,East,90,2.7,3.8,31,0.00,,,0.00,VWS V14.01,2013-04-09 21:57:00,
2013-04-09 17:02:00,82.4,47.9,28.61,ESE,112,5.8,5.8,30,0.00,,,0.00,VWS V14.01,2013-04-09 22:02:00,
2013-04-09 17:07:00,81.9,48.3,28.61,ESE,112,3.6,4.0,31,0.00,,,0.00,VWS V14.01,2013-04-09 22:07:00,
2013-04-09 17:12:00,81.0,47.5,28.58,SE,135,3.4,6.0,31,0.00,,,0.00,VWS V14.01,2013-04-09 22:12:00,
2013-04-09 17:17:00,81.3,47.8,28.58,SSW,202,3.6,3.6,31,0.00,,,0.00,VWS V14.01,2013-04-09 22:17:00,
2013-04-09 17:22:00,81.9,48.3,28.58,SSE,158,3.1,4.9,31,0.00,,,0.00,VWS V14.01,2013-04-09 22:22:00,
2013-04-09 17:27:00,80.2,46.9,28.58,ESE,112,5.4,6.5,31,0.00,,,0.00,VWS V14.01,2013-04-09 22:27:00,
2013-04-09 17:32:00,81.0,47.5,28.58,SSE,158,3.6,3.6,31,0.00,,,0.00,VWS V14.01,2013-04-09 22:32:00,
2013-04-09 17:37:00,80.6,47.2,28.58,ESE,112,4.3,4.3,31,0.00,,,0.00,VWS V14.01,2013-04-09 22:37:00,
2013-04-09 17:42:00,79.9,46.6,28.58,SE,135,5.6,5.6,31,0.00,,,0.00,VWS V14.01,2013-04-09 22:42:00,
2013-04-09 17:47:00,79.9,46.6,28.58,SSW,202,2.5,3.4,31,0.00,,,0.00,VWS V14.01,2013-04-09 22:47:00,
2013-04-09 17:52:00,80.1,46.7,28.58,ESE,112,4.0,4.0,31,0.00,,,0.00,VWS V14.01,2013-04-09 22:52:00,
2013-04-09 17:57:00,79.3,46.1,28.58,SE,135,11.4,11.4,31,0.00,,,0.00,VWS V14.01,2013-04-09 22:57:00,
2013-04-09 18:02:00,79.2,46.8,28.58,ESE,112,3.6,3.8,32,0.00,,,0.00,VWS V14.01,2013-04-09 23:02:00,
2013-04-09 18:07:00,79.0,45.8,28.58,SSE,158,2.2,7.8,31,0.00,,,0.00,VWS V14.01,2013-04-09 23:07:00,
2013-04-09 18:12:00,79.3,47.0,28.58,East,90,2.9,2.9,32,0.00,,,0.00,VWS V14.01,2013-04-09 23:12:00,
2013-04-09 18:17:00,78.8,46.5,28.58,ESE,112,4.0,4.3,32,0.00,,,0.00,VWS V14.01,2013-04-09 23:17:00,
2013-04-09 18:22:00,78.3,46.0,28.58,East,90,3.4,3.4,32,0.00,,,0.00,VWS V14.01,2013-04-09 23:22:00,
2013-04-09 18:27:00,77.5,45.4,28.58,ESE,112,5.6,5.6,32,0.00,,,0.00,VWS V14.01,2013-04-09 23:27:00,
2013-04-09 18:32:00,77.4,45.2,28.58,ENE,68,3.8,3.8,32,0.00,,,0.00,VWS V14.01,2013-04-09 23:32:00,
2013-04-09 18:37:00,77.0,44.9,28.58,SE,135,1.3,3.8,32,0.00,,,0.00,VWS V14.01,2013-04-09 23:37:00,
2013-04-09 18:42:00,76.6,45.4,28.61,ESE,112,3.8,3.8,33,0.00,,,0.00,VWS V14.01,2013-04-09 23:42:00,
2013-04-09 18:47:00,76.6,45.4,28.61,ESE,112,2.5,3.4,33,0.00,,,0.00,VWS V14.01,2013-04-09 23:47:00,
2013-04-09 18:52:00,76.5,45.2,28.61,SE,135,2.7,2.7,33,0.00,,,0.00,VWS V14.01,2013-04-09 23:52:00,
2013-04-09 18:57:00,76.3,45.1,28.61,ESE,112,2.5,3.4,33,0.00,,,0.00,VWS V14.01,2013-04-09 23:57:00,
2013-04-09 19:02:00,75.9,44.8,28.61,East,90,2.7,3.1,33,0.00,,,0.00,VWS V14.01,2013-04-10 00:02:00,
2013-04-09 19:07:00,75.6,45.2,28.61,ESE,112,3.6,3.6,34,0.00,,,0.00,VWS V14.01,2013-04-10 00:07:00,
2013-04-09 19:13:00,75.6,44.5,28.61,SE,135,2.5,4.0,33,0.00,,,0.00,VWS V14.01,2013-04-10 00:13:00,
2013-04-09 19:18:00,75.6,44.5,28.61,ESE,112,3.4,3.4,33,0.00,,,0.00,VWS V14.01,2013-04-10 00:18:00,
2013-04-09 19:23:00,75.6,44.5,28.61,ESE,112,4.0,6.0,33,0.00,,,0.00,VWS V14.01,2013-04-10 00:23:00,
2013-04-09 19:28:00,75.4,44.3,28.64,SE,135,2.9,2.9,33,0.00,,,0.00,VWS V14.01,2013-04-10 00:28:00,
2013-04-09 19:33:00,75.4,44.3,28.64,ESE,112,3.4,3.4,33,0.00,,,0.00,VWS V14.01,2013-04-10 00:33:00,
2013-04-09 19:38:00,75.4,44.3,28.64,SSE,158,5.6,7.6,33,0.00,,,0.00,VWS V14.01,2013-04-10 00:38:00,
2013-04-09 19:43:00,75.4,44.3,28.64,SSE,158,5.8,5.8,33,0.00,,,0.00,VWS V14.01,2013-04-10 00:43:00,
2013-04-09 19:48:00,75.2,44.2,28.64,SSE,158,4.0,4.3,33,0.00,,,0.00,VWS V14.01,2013-04-10 00:48:00,
2013-04-09 19:53:00,75.0,44.0,28.64,SE,135,8.1,8.1,33,0.00,,,0.00,VWS V14.01,2013-04-10 00:53:00,
2013-04-09 19:58:00,75.0,44.0,28.64,SE,135,3.4,3.4,33,0.00,,,0.00,VWS V14.01,2013-04-10 00:58:00,
2013-04-09 20:03:00,74.8,43.8,28.64,ESE,112,2.5,2.5,33,0.00,,,0.00,VWS V14.01,2013-04-10 01:03:00,
2013-04-09 20:08:00,74.7,43.7,28.64,ESE,112,5.6,5.6,33,0.00,,,0.00,VWS V14.01,2013-04-10 01:08:00,
2013-04-09 20:13:00,74.3,43.4,28.64,SE,135,4.9,4.9,33,0.00,,,0.00,VWS V14.01,2013-04-10 01:13:00,
2013-04-09 20:18:00,74.1,44.0,28.64,SSE,158,3.8,4.0,34,0.00,,,0.00,VWS V14.01,2013-04-10 01:18:00,
2013-04-09 20:23:00,74.1,44.0,28.64,ESE,112,3.6,5.6,34,0.00,,,0.00,VWS V14.01,2013-04-10 01:23:00,
2013-04-09 20:28:00,74.3,44.1,28.67,SE,135,6.0,6.0,34,0.00,,,0.00,VWS V14.01,2013-04-10 01:28:00,
2013-04-09 20:33:00,73.9,43.8,28.67,ESE,112,2.7,2.7,34,0.00,,,0.00,VWS V14.01,2013-04-10 01:33:00,
2013-04-09 20:38:00,74.1,44.0,28.67,SE,135,4.7,5.6,34,0.00,,,0.00,VWS V14.01,2013-04-10 01:38:00,
2013-04-09 20:43:00,73.9,43.8,28.67,ESE,112,4.0,4.0,34,0.00,,,0.00,VWS V14.01,2013-04-10 01:43:00,
2013-04-09 20:48:00,73.6,43.5,28.67,ESE,112,3.6,3.6,34,0.00,,,0.00,VWS V14.01,2013-04-10 01:48:00,
2013-04-09 20:53:00,73.8,43.7,28.67,East,90,3.4,4.3,34,0.00,,,0.00,VWS V14.01,2013-04-10 01:53:00,
2013-04-09 20:58:00,73.6,43.5,28.70,South,180,4.7,4.7,34,0.00,,,0.00,VWS V14.01,2013-04-10 01:58:00,
2013-04-09 21:03:00,73.6,43.5,28.70,South,180,3.8,3.8,34,0.00,,,0.00,VWS V14.01,2013-04-10 02:03:00,
2013-04-09 21:08:00,73.4,43.3,28.70,SE,135,3.6,3.8,34,0.00,,,0.00,VWS V14.01,2013-04-10 02:08:00,
2013-04-09 21:13:00,73.4,43.3,28.70,ESE,112,4.3,4.3,34,0.00,,,0.00,VWS V14.01,2013-04-10 02:13:00,
2013-04-09 21:18:00,73.2,44.0,28.70,ESE,112,3.4,3.4,35,0.00,,,0.00,VWS V14.01,2013-04-10 02:18:00,
2013-04-09 21:22:00,72.9,44.4,28.70,ESE,112,4.0,5.4,36,0.00,,,0.00,VWS V14.01,2013-04-10 02:22:00,
2013-04-09 21:27:00,72.9,44.4,28.67,ESE,112,3.6,4.0,36,0.00,,,0.00,VWS V14.01,2013-04-10 02:27:00,
2013-04-09 21:32:00,72.3,43.9,28.67,SE,135,2.7,2.7,36,0.00,,,0.00,VWS V14.01,2013-04-10 02:32:00,
2013-04-09 21:37:00,72.0,44.3,28.67,ENE,68,3.6,3.6,37,0.00,,,0.00,VWS V14.01,2013-04-10 02:37:00,
2013-04-09 21:42:00,72.0,44.3,28.70,ESE,112,2.7,2.7,37,0.00,,,0.00,VWS V14.01,2013-04-10 02:42:00,
2013-04-09 21:47:00,72.0,45.0,28.70,SE,135,2.7,3.1,38,0.00,,,0.00,VWS V14.01,2013-04-10 02:47:00,
2013-04-09 21:52:00,71.6,44.7,28.70,East,90,2.5,2.5,38,0.00,,,0.00,VWS V14.01,2013-04-10 02:52:00,
2013-04-09 21:57:00,71.6,44.7,28.70,East,90,2.9,2.9,38,0.00,,,0.00,VWS V14.01,2013-04-10 02:57:00,
2013-04-09 22:03:00,71.6,44.7,28.70,East,90,2.0,2.9,38,0.00,,,0.00,VWS V14.01,2013-04-10 03:03:00,
2013-04-09 22:08:00,71.2,45.0,28.70,East,90,2.0,2.0,39,0.00,,,0.00,VWS V14.01,2013-04-10 03:08:00,
2013-04-09 22:13:00,70.7,44.5,28.70,East,90,1.3,1.6,39,0.00,,,0.00,VWS V14.01,2013-04-10 03:13:00,
2013-04-09 22:18:00,70.5,45.1,28.70,East,90,1.6,1.6,40,0.00,,,0.00,VWS V14.01,2013-04-10 03:18:00,
2013-04-09 22:23:00,70.5,45.1,28.70,ENE,68,2.2,2.9,40,0.00,,,0.00,VWS V14.01,2013-04-10 03:23:00,
2013-04-09 22:28:00,70.3,45.5,28.70,SE,135,2.0,3.4,41,0.00,,,0.00,VWS V14.01,2013-04-10 03:28:00,
2013-04-09 22:32:00,70.9,46.7,28.70,SE,135,2.9,2.9,42,0.00,,,0.00,VWS V14.01,2013-04-10 03:32:00,
2013-04-09 22:38:00,70.7,46.5,28.70,SE,135,3.4,3.4,42,0.00,,,0.00,VWS V14.01,2013-04-10 03:38:00,
2013-04-09 22:42:00,70.7,46.5,28.70,ESE,112,2.7,4.0,42,0.00,,,0.00,VWS V14.01,2013-04-10 03:42:00,
2013-04-09 22:47:00,70.5,46.3,28.70,SSE,158,3.6,3.6,42,0.00,,,0.00,VWS V14.01,2013-04-10 03:47:00,
2013-04-09 22:52:00,70.5,46.3,28.70,ESE,112,2.5,4.0,42,0.00,,,0.00,VWS V14.01,2013-04-10 03:52:00,
2013-04-09 22:57:00,70.3,46.8,28.70,SE,135,2.0,2.7,43,0.00,,,0.00,VWS V14.01,2013-04-10 03:57:00,
2013-04-09 23:00:00,70.3,46.8,28.70,ESE,112,2.0,2.7,43,0.00,,,0.00,VWS V14.01,2013-04-10 04:00:00,
2013-04-09 23:05:00,70.2,46.6,28.70,ESE,112,2.5,2.5,43,0.00,,,0.00,VWS V14.01,2013-04-10 04:05:00,
2013-04-09 23:10:00,70.0,46.5,28.70,SE,135,2.7,2.7,43,0.00,,,0.00,VWS V14.01,2013-04-10 04:10:00,
2013-04-09 23:15:00,70.2,46.6,28.70,East,90,2.0,2.0,43,0.00,,,0.00,VWS V14.01,2013-04-10 04:15:00,
2013-04-09 23:20:00,70.3,47.4,28.70,ESE,112,2.9,2.9,44,0.00,,,0.00,VWS V14.01,2013-04-10 04:20:00,
2013-04-09 23:25:00,70.3,46.8,28.70,ESE,112,3.8,3.8,43,0.00,,,0.00,VWS V14.01,2013-04-10 04:25:00,
2013-04-09 23:30:00,70.2,47.2,28.67,ENE,68,3.1,3.1,44,0.00,,,0.00,VWS V14.01,2013-04-10 04:30:00,
2013-04-09 23:35:00,70.2,47.2,28.67,ESE,112,2.5,2.9,44,0.00,,,0.00,VWS V14.01,2013-04-10 04:35:00,
2013-04-09 23:40:00,70.0,47.7,28.67,East,90,2.7,2.7,45,0.00,,,0.00,VWS V14.01,2013-04-10 04:40:00,
2013-04-09 23:45:00,70.0,47.7,28.67,ESE,112,3.4,3.4,45,0.00,,,0.00,VWS V14.01,2013-04-10 04:45:00,
2013-04-09 23:50:00,69.8,47.5,28.67,ESE,112,3.1,3.6,45,0.00,,,0.00,VWS V14.01,2013-04-10 04:50:00,
2013-04-09 23:55:00,70.0,48.3,28.67,ESE,112,4.9,4.9,46,0.00,,,0.00,VWS V14.01,2013-04-10 04:55:00,